Location: Sagn�
(15.2046°N, 12.7898°W)
Time: 13:14:18
(UTC+00:00)

H-2A R/B - Pass Details

Date: 08 May 2021
Orbit: 734 x 836 km, 98.2° (Epoch: 15 June)

Event Time Altitude Azimuth Distance (km) Brightness Sun altitude
Rises 20:16:06 0° 187° (S) 3,175 5.0 -15.6°
Reaches altitude 10° 20:18:36 10° 197° (SSW) 2,243 4.3 -16.1°
Maximum altitude 20:22:58 32° 260° (W) 1,234 3.6 -17.1°
Drops below altitude 10° 20:27:20 10° 323° (NW) 2,231 5.3 -18.1°
Sets 20:29:49 0° 333° (NNW) 3,156 6.0 -18.6°
